When you browse on this site, cookies collect data to enhance your experience and personalize the content and advertising you see.
Visit our Privacy Policy to learn more. By continuing to use the site, you agree to this use of cookies and data.
  • In United Kingdom
  • List of Countries
  • For 7 days
  • Water Temperature
  • Weather Map
  • Weather Widgets
  • user-avatar
    Login

    Hourly Weather Sumgayit

    Today, 15 September, Sunday

    Time Temperature Precipitation Wind Pressure Humidity
    00:00 +19°C° 0 mm 2 mps 743 mmHg 66%
    01:00 +19°C° 0 mm 2 mps 743 mmHg 68%
    02:00 +18°C° 0 mm 2 mps 742 mmHg 70%
    03:00 +18°C° 0 mm 2 mps 742 mmHg 71%
    04:00 +18°C° 0 mm 2 mps 742 mmHg 71%
    05:00 +19°C° 0 mm 1 mps 743 mmHg 72%
    06:00 +19°C° 0 mm 1 mps 743 mmHg 72%
    07:00 +20°C° 0 mm 2 mps 743 mmHg 65%
    08:00 +21°C° 0 mm 4 mps 743 mmHg 58%
    09:00 +23°C° 0 mm 5 mps 743 mmHg 51%
    10:00 +25°C° 0 mm 5 mps 743 mmHg 49%
    11:00 +26°C° 0 mm 5 mps 743 mmHg 46%
    12:00 +27°C° 0 mm 6 mps 743 mmHg 44%
    13:00 +27°C° 0 mm 6 mps 742 mmHg 45%
    14:00 +27°C° 0 mm 6 mps 742 mmHg 46%
    15:00 +27°C° 0 mm 6 mps 742 mmHg 47%
    16:00 +26°C° 0 mm 6 mps 742 mmHg 53%
    17:00 +23°C° 0 mm 5 mps 742 mmHg 58%
    18:00 +22°C° 0 mm 5 mps 742 mmHg 63%
    19:00 +22°C° 0 mm 4 mps 742 mmHg 65%
    20:00 +22°C° 0 mm 4 mps 743 mmHg 68%
    21:00 +21°C° 0 mm 3 mps 743 mmHg 70%
    22:00 +21°C° 0 mm 2 mps 743 mmHg 71%
    23:00 +21°C° 0 mm 2 mps 743 mmHg 71%

    Tomorrow, 16 September, Monday

    Time Temperature Precipitation Wind Pressure Humidity
    00:00 +22°C° 0 mm 1 mps 743 mmHg 72%
    01:00 +22°C° 0 mm 1 mps 743 mmHg 71%
    02:00 +22°C° 0 mm 1 mps 743 mmHg 71%
    03:00 +22°C° 0 mm 1 mps 743 mmHg 70%
    04:00 +22°C° 0 mm 1 mps 743 mmHg 69%
    05:00 +22°C° 0 mm 1 mps 743 mmHg 69%
    06:00 +22°C° 0 mm 1 mps 743 mmHg 68%
    07:00 +23°C° 0 mm 2 mps 743 mmHg 63%
    08:00 +24°C° 0 mm 3 mps 743 mmHg 58%
    09:00 +25°C° 0 mm 4 mps 743 mmHg 53%
    10:00 +26°C° 0 mm 4 mps 743 mmHg 52%
    11:00 +27°C° 0 mm 5 mps 742 mmHg 50%
    12:00 +27°C° 0 mm 6 mps 742 mmHg 48%
    13:00 +27°C° 0 mm 6 mps 741 mmHg 47%
    14:00 +27°C° 0 mm 6 mps 741 mmHg 46%
    15:00 +27°C° 0 mm 6 mps 740 mmHg 45%
    16:00 +26°C° 0 mm 5 mps 740 mmHg 47%
    17:00 +25°C° 0 mm 5 mps 739 mmHg 49%
    18:00 +23°C° 0 mm 4 mps 739 mmHg 50%
    19:00 +23°C° 0 mm 4 mps 739 mmHg 53%
    20:00 +22°C° 0 mm 4 mps 739 mmHg 55%
    21:00 +22°C° 0 mm 4 mps 739 mmHg 57%
    22:00 +22°C° 0 mm 4 mps 738 mmHg 57%
    23:00 +21°C° 0 mm 4 mps 738 mmHg 57%

    Day after tomorrow, 17 September, Tuesday

    Time Temperature Precipitation Wind Pressure Humidity
    00:00 +21°C° 0 mm 4 mps 738 mmHg 57%
    01:00 +21°C° 0 mm 3 mps 737 mmHg 58%
    02:00 +20°C° 0 mm 3 mps 737 mmHg 60%
    03:00 +20°C° 0 mm 2 mps 737 mmHg 61%
    04:00 +20°C° 0 mm 2 mps 737 mmHg 62%
    05:00 +20°C° 0 mm 2 mps 737 mmHg 63%
    06:00 +21°C° 0 mm 1 mps 736 mmHg 65%
    07:00 +23°C° 0 mm 1 mps 737 mmHg 60%
    08:00 +24°C° 0 mm 1 mps 737 mmHg 55%
    09:00 +26°C° 0 mm 1 mps 737 mmHg 51%
    10:00 +27°C° 0 mm 1 mps 736 mmHg 47%
    11:00 +29°C° 0 mm 2 mps 736 mmHg 43%
    12:00 +30°C° 0 mm 2 mps 736 mmHg 39%
    13:00 +30°C° 0 mm 3 mps 735 mmHg 40%
    14:00 +30°C° 0 mm 4 mps 735 mmHg 41%
    15:00 +29°C° 0 mm 4 mps 735 mmHg 42%
    16:00 +28°C° 0 mm 5 mps 734 mmHg 46%
    17:00 +27°C° 0 mm 5 mps 734 mmHg 50%
    18:00 +25°C° 0 mm 5 mps 734 mmHg 54%
    19:00 +24°C° 0 mm 6 mps 735 mmHg 54%
    20:00 +24°C° 0 mm 6 mps 735 mmHg 53%
    21:00 +24°C° 0 mm 6 mps 735 mmHg 53%
    22:00 +24°C° 0 mm 6 mps 736 mmHg 53%
    23:00 +23°C° 0 mm 6 mps 736 mmHg 53%

    18 September, Wednesday

    Time Temperature Precipitation Wind Pressure Humidity
    00:00 +23°C° 0 mm 6 mps 736 mmHg 53%
    01:00 +23°C° 0 mm 5 mps 736 mmHg 56%
    02:00 +22°C° 0 mm 4 mps 737 mmHg 59%
    03:00 +23°C° 0 mm 2 mps 737 mmHg 62%
    04:00 +23°C° 0 mm 2 mps 737 mmHg 62%
    05:00 +21°C° 0 mm 2 mps 738 mmHg 63%
    06:00 +22°C° 0 mm 1 mps 738 mmHg 64%
    07:00 +24°C° 0 mm 2 mps 739 mmHg 55%
    08:00 +25°C° 0 mm 3 mps 740 mmHg 47%
    09:00 +27°C° 0 mm 3 mps 740 mmHg 39%
    10:00 +28°C° 0 mm 3 mps 740 mmHg 37%
    11:00 +28°C° 0 mm 3 mps 740 mmHg 34%
    12:00 +29°C° 0 mm 3 mps 740 mmHg 32%
    13:00 +29°C° 0 mm 4 mps 740 mmHg 33%
    14:00 +29°C° 0 mm 4 mps 740 mmHg 34%
    15:00 +29°C° 0 mm 4 mps 739 mmHg 35%
    16:00 +27°C° 0 mm 4 mps 740 mmHg 41%
    17:00 +26°C° 0 mm 4 mps 740 mmHg 47%
    18:00 +25°C° 0 mm 4 mps 740 mmHg 53%
    19:00 +24°C° 0 mm 3 mps 740 mmHg 58%
    20:00 +24°C° 0 mm 2 mps 740 mmHg 63%
    21:00 +23°C° 0 mm 2 mps 740 mmHg 69%
    22:00 +23°C° 0 mm 2 mps 740 mmHg 70%
    23:00 +22°C° 0 mm 1 mps 740 mmHg 72%

    19 September, Thursday

    Time Temperature Precipitation Wind Pressure Humidity
    00:00 +22°C° 0 mm 1 mps 739 mmHg 74%
    01:00 +22°C° 0 mm 1 mps 739 mmHg 76%
    02:00 +22°C° 0 mm 1 mps 739 mmHg 78%
    03:00 +20°C° 0 mm 2 mps 739 mmHg 80%
    04:00 +20°C° 0 mm 2 mps 739 mmHg 82%
    05:00 +20°C° 0 mm 2 mps 739 mmHg 83%
    06:00 +20°C° 0 mm 2 mps 739 mmHg 84%
    07:00 +23°C° 0 mm 2 mps 739 mmHg 75%
    08:00 +25°C° 0 mm 3 mps 739 mmHg 66%
    09:00 +26°C° 0 mm 3 mps 740 mmHg 56%
    10:00 +28°C° 0 mm 3 mps 740 mmHg 51%
    11:00 +29°C° 0 mm 3 mps 740 mmHg 45%
    12:00 +30°C° 0 mm 3 mps 740 mmHg 39%
    13:00 +30°C° 0 mm 3 mps 739 mmHg 41%
    14:00 +29°C° 0 mm 4 mps 739 mmHg 43%
    15:00 +29°C° 0 mm 4 mps 739 mmHg 45%
    16:00 +27°C° 0 mm 5 mps 739 mmHg 52%
    17:00 +26°C° 0 mm 6 mps 739 mmHg 59%
    18:00 +23°C° 0 mm 7 mps 739 mmHg 66%
    19:00 +23°C° 0 mm 7 mps 740 mmHg 65%
    20:00 +23°C° 0 mm 7 mps 740 mmHg 64%
    21:00 +23°C° 0 mm 6 mps 740 mmHg 63%
    22:00 +22°C° 0 mm 6 mps 740 mmHg 65%
    23:00 +22°C° 0 mm 6 mps 740 mmHg 67%

    20 September, Friday

    Time Temperature Precipitation Wind Pressure Humidity
    00:00 +22°C° 0 mm 5 mps 740 mmHg 69%
    01:00 +21°C° 0 mm 5 mps 740 mmHg 70%
    02:00 +21°C° 0 mm 5 mps 740 mmHg 71%
    03:00 +21°C° 0 mm 5 mps 739 mmHg 72%
    04:00 +20°C° 0 mm 4 mps 739 mmHg 73%
    05:00 +20°C° 0 mm 3 mps 739 mmHg 74%
    06:00 +20°C° 0 mm 3 mps 739 mmHg 74%
    07:00 +22°C° 0 mm 3 mps 739 mmHg 67%
    08:00 +24°C° 0 mm 3 mps 739 mmHg 60%
    09:00 +25°C° 0 mm 3 mps 739 mmHg 53%
    10:00 +27°C° 0 mm 3 mps 739 mmHg 48%
    11:00 +28°C° 0 mm 2 mps 739 mmHg 44%
    12:00 +29°C° 0 mm 2 mps 738 mmHg 40%
    13:00 +29°C° 0 mm 3 mps 738 mmHg 39%
    14:00 +29°C° 0 mm 4 mps 737 mmHg 38%
    15:00 +30°C° 0 mm 4 mps 736 mmHg 37%
    16:00 +28°C° 0 mm 4 mps 736 mmHg 42%
    17:00 +27°C° 0 mm 4 mps 736 mmHg 47%
    18:00 +26°C° 0 mm 3 mps 736 mmHg 51%
    19:00 +25°C° 0 mm 2 mps 736 mmHg 55%
    20:00 +24°C° 0 mm 2 mps 736 mmHg 59%
    21:00 +23°C° 0 mm 1 mps 736 mmHg 63%
    22:00 +23°C° 0 mm 1 mps 735 mmHg 63%
    23:00 +23°C° 0 mm 1 mps 735 mmHg 63%
    Show more